DELTA 1 DEB, 10836

Orbit data source: Space-Track

DELTA 1 DEB, 10836 is space debris in SSO originally from a launch on Thu, 29 Jul 1976 UTC launched from the Air Force Western Test Range (AFWTR). Debris objects in space refer to the collection of defunct objects orbiting the Earth. Examples of debris include non-operational satellites, rocket bodies, and fragments generated from explosions, collisions, or faulty payload assembly.

Loading next visibility...
Identifier
10836, 1976-077CG
Orbit
SSO
Country
Flag of USUS
Related business
Manufacturer
Unknown
Mission
Spacecraft
Bus & Motor
Unknown
Mass
Unknown
Launch date (UTC)
1976-07-29 (50 years ago)
Launch vehicle
Unknown
Launch site
Air Force Western Test Range (AFWTR)
Object type
Payload
Rocket body
Debris
Shape & HBR
Unknown shape, 0.1 m
Radar Cross Section
Small (<0.1 m²)

Expand to show TLE details & history
Last TLE update: 23 hours ago

TLE from 23 hours ago
0 DELTA 1 DEB
1 10836U 76077CG  26033.33475871  .00000311  00000-0  37864-2 0  9992
2 10836 102.0851 156.1921 0181385 278.6004 103.4344 12.07699276537345
Epoch: 2026-02-02T08:02Z
TLE epoch observation values (Epoch: 2026-02-02T08:02:03.152Z)
Latitude
23.50117°
Longitude
-102.16905°
Altitude
1,685.357 km
Speed
7.018 km/s
True Right ascension
10h 03m 30s
True Declination
23° 23' 24"
Sunlit
Object was in full shadow at epoch
Visualization orbit readout
Latitude
Unknown
Longitude
Unknown
Altitude
Unknown
Speed
Unknown
Apparent Right ascension
Unknown
Apparent Declination
Unknown
Sunlit
N/A
Visualization observer readout
Local Sidereal Time
08:44:16
Azimuth
Unknown
Elevation
Unknown
Doppler factor
Unknown
Orbital elements
Apogee altitude
1,789.706 km
Perigee altitude
1,498.68 km
Semi-major axis
8,022.33 km
Eccentricity
0.01814
Inclination
102.0851°
RAAN
156.1921°
Arg. of periapsis
278.6004°
True anomaly
105.44504°
Mean anomaly
103.4344°
Eccentric anomaly
104.44082°
Mean motion
3.02059 °/min
Orbital period
119.18 mins
BSTAR
0.0037864
Loading maneuver chart data...
Computing Atmospheric mass density...
Loading historical data...
Loading historical data...
Loading historical data...
Loading historical data...
Loading historical data...
Loading historical data...
Loading historical data...

Documentation

Showing up to 5 results
|